Location: Newark
(44.3789°N, 0.6828°W)
Time: 21:42:45
(UTC+00:00)

Envisat - Visible Passes

Search period start: 22 October 2019 00:00
Search period end: 01 November 2019 00:00
Orbit: 764 x 766 km, 98.1° (Epoch: 22 October)

Date Brightness Start Highest point End Pass type
(mag) Time Alt. Az. Time Alt. Az. Time Alt. Az.
22 Oct 2.9 17:56:49 10° SSE 18:01:53 80° ENE 18:06:59 10° N visible
22 Oct 6.1 19:39:11 10° WSW 19:41:31 13° W 19:43:51 10° WNW visible
23 Oct 5.1 19:00:01 10° SSW 19:04:21 28° W 19:08:43 10° NW visible
24 Oct 6.6 05:30:16 10° ENE 05:31:36 11° E 05:32:55 10° ESE visible
24 Oct 3.6 18:22:23 10° S 18:27:24 61° W 18:32:26 10° NNW visible
25 Oct 3.0 17:45:38 10° SSE 17:50:38 64° ENE 17:55:41 10° N visible
25 Oct 5.8 19:26:55 10° SW 19:30:07 17° W 19:33:19 10° NW visible
26 Oct 6.0 05:53:47 10° NE 05:57:26 19° E 06:01:03 10° SE visible
26 Oct 4.6 18:48:23 10° SSW 18:53:01 35° W 18:57:40 10° NNW visible
27 Oct 3.2 18:11:03 10° S 18:16:06 76° WSW 18:21:14 10° NNW visible
28 Oct 3.2 17:34:31 10° SE 17:39:25 51° ENE 17:44:20 10° N visible
28 Oct 5.5 19:14:57 10° SW 19:18:43 21° W 19:22:31 10° NW visible
29 Oct 6.2 05:43:02 10° NE 05:46:02 16° E 05:49:00 10° SE visible
29 Oct 4.2 18:36:51 10° S 18:41:40 44° W 18:46:33 10° NNW visible
30 Oct 3.0 17:59:46 10° SSE 18:04:51 86° ENE 18:09:58 10° NNW visible
30 Oct 6.2 19:42:42 10° WSW 19:44:32 12° W 19:46:23 10° WNW visible
31 Oct 5.6 06:07:32 10° NE 06:11:48 26° E 06:16:02 10° SSE visible
31 Oct 3.4 17:23:29 10° SE 17:28:13 41° ENE 17:32:57 10° N visible
31 Oct 5.2 19:03:09 10° SSW 19:07:21 26° W 19:11:35 10° NW visible
